{"data":{"norad_id":57237,"intl_designator":"2023-094V","name":"STARLINK-6365","alt_names":[],"object_type":"PAYLOAD","status":"ACTIVE","operator":null,"country":"US","launch_date":"2023-07-07","launch_site_code":"AFWTR","launch_vehicle":null,"mission":null,"orbit_class":"UNKNOWN","rcs_meters":null,"size_class":null,"mass_kg":null,"dimensions":null,"purposes":["comms"],"wikipedia_slug":null,"has_3d_model":false,"image_url":null,"decayed_at":null,"tle_current":{"epoch":"2026-09-20T13:59:30.833664Z","epoch_age_seconds":117125,"freshness":"FRESH","line1":"1 57237U 23094V   26263.58299576 -.00003337  00000+0 -11178-3 0  9990","line2":"2 57237  43.0043   9.9069 0001839 261.7206  98.3437 15.27576306176929","mean_motion":15.27576306,"eccentricity":0.0001839,"inclination_deg":43.0043,"raan_deg":9.9069,"arg_perigee_deg":261.7206,"mean_anomaly_deg":98.3437,"bstar":-0.00011178,"rev_number":17692,"period_min":94.266976670428,"perigee_km":481.79838306964,"apogee_km":484.32193138407,"semimajor_km":6861.1971572269,"source":"CELESTRAK","updated_at":"2026-09-21T09:00:33.588210Z"}}}